Regional Weather Roundup
Issued by NWS

Home | Current Version | Previous Version | Graphics & Text | Print | Product List | Glossary On
Versions: 1 2 3 4 5 6 7 8 9 10 11 12 13 14 15 16 17 18 19 20 21 22 23 24 25 26 27 28 29 30 31 32 33 34 35 36 37 38 39 40 41 42 43 44 45 46 47 48 49 50
336
ASUS45 KTFX 222110
RWRMT
MONTANA REGIONAL WEATHER ROUNDUP
NATIONAL WEATHER SERVICE GREAT FALLS MT
300 PM MDT THU JUN 22 2017

NOTE: "FAIR" INDICATES FEW OR NO CLOUDS BELOW 12000 FEET WITH NO
SIGNIFICANT WEATHER AND/OR OBSTRUCTIONS TO VISIBILITY.

MTZ001>007-043-222200-
WEST OF THE DIVIDE

CITY           SKY/WX    TMP DP  RH WIND       PRES   REMARKS
KALISPELL        N/A     67  31  26 NE7       30.15S
MISSOULA         N/A     71  33  24 N18G26    30.14R
BUTTE          SUNNY     66  22  18 N15G28    30.15S
MULLAN PASS      N/A     56  25  30 VRB5      30.27R
ANACONDA         N/A     64  23  20 SW14G24   30.15R
DEER LODGE       N/A     64  25  22 NW21G29   30.17R
EUREKA           N/A     70  28  21 MISG      30.16F
HAMILTON         N/A     70  25  18 NW16      30.14R
LIBBY            N/A     70  21  16 N6        30.14F
$$

MTZ008-052>055-222200-
SOUTHWEST MONTANA

CITY           SKY/WX    TMP DP  RH WIND       PRES   REMARKS
BOZEMAN        MOSUNNY   72  28  19 VRB7G21   30.10R
DILLON         SUNNY     69  26  20 VRB6      30.10F
W YELLOWSTONE  SUNNY     64  27  24 SW12G20   30.15R
ENNIS          SUNNY     70  21  16 W16G26    30.17R
THREE FORKS      N/A     71  26  18 N9        30.07S
$$

MTZ009-010-012-014-046-048-049-054-222200-
EAST SLOPES AND CENTRAL MONTANA

CITY           SKY/WX    TMP DP  RH WIND       PRES   REMARKS
CUT BANK       PTSUNNY   57  35  43 N18       30.20R
GREAT FALLS    MOSUNNY   66  30  26 N20G26    30.15R
MALMSTROM AFB  MOSUNNY   65  33  29 N14G30    30.16R
HELENA         CLOUDY    68  27  21 N14G22    30.12R
CHOTEAU          N/A     64  32  29 N20G25    30.19R
$$

MTZ011-013-016-021-045-047-050-051-222200-
NORTH CENTRAL MONTANA

CITY           SKY/WX    TMP DP  RH WIND       PRES   REMARKS
HAVRE          CLOUDY    54  40  59 NW23G33   30.15R
LEWISTOWN      MOSUNNY   64  28  25 NW25G37   30.11R
N BAR RANCH      N/A     63  27  25 NW25G38   30.11R
CHINOOK          N/A     55  43  62 W22G32    30.12R
FORT BENTON      N/A     64  36  34 CALM      30.17R
$$

MTZ017>020-022>027-061-062-222200-
NORTHEAST MONTANA

CITY           SKY/WX    TMP DP  RH WIND       PRES   REMARKS
GLASGOW        CLOUDY    64  35  34 NW35G54   29.95R
JORDAN           N/A     73  24  16 NW28G40   29.97R
SIDNEY         CLOUDY    73  32  22 NW31G38   29.86S
WOLF POINT     CLOUDY    71  33  24 NW35G49   29.90R
MALTA          PTSUNNY   59  41  51 NW29G43   30.05R
PLENTYWOOD       N/A     55  45  67 W32G38    29.85R
POPLAR           N/A     66  32  28 W35G48    29.88R
$$

MTZ028>42-056>058-222200-
SOUTHCENTRAL AND SOUTHEAST MONTANA

CITY           SKY/WX    TMP DP  RH WIND       PRES   REMARKS
BAKER          PTSUNNY   70  29  21 NW17G31   29.94S
BILLINGS       MOSUNNY   75  26  16 N18G32    30.02R
LIVINGSTON     CLOUDY    68  29  23 W15G24    30.08R
MILES CITY     CLOUDY    76  33  21 W21       29.94F
BIG TIMBER     PTSUNNY   68  27  21 W18G24    30.10R
FORSYTH          N/A     70  36  28 W7G17     29.96F
ROUNDUP          N/A     71  29  21 NW24      29.96R
$$

REGIONAL REPORTS...DAKOTAS

CITY           SKY/WX    TMP DP  RH WIND       PRES   REMARKS
WILLISTON      CLOUDY    69  34  27 NW25G40   29.84R
MINOT          CLOUDY    72  32  23 W28G43    29.75R
DICKINSON      CLOUDY    71  28  20 W22G37    29.87S
BEACH            N/A     70  28  21 NW29G37   29.93S
CROSBY           N/A     59  41  51 W38G46    29.81R
TIOGA          CLOUDY    64  36  34 NW33G45   29.81S
WATFORD CITY     N/A     70  34  26 NW20G37   29.83S
BISMARCK       MOSUNNY   77  32  19 W21G31    29.82R
GRAND FORKS    PTSUNNY   77  41  27 W23G32    29.68R
FARGO          SUNNY     79  38  22 W24G35    29.71R
BUFFALO SD       N/A     73  32  22 NW29G37   29.85F
RAPID CITY     SUNNY     76  39  26 N10G26    29.93F
$$

REGIONAL REPORTS...WYOMING/IDAHO/WASHINGTON

CITY           SKY/WX    TMP DP  RH WIND       PRES   REMARKS
GILLETTE       MOSUNNY   74  37  26 NW15G21   29.99F
SHERIDAN       PTSUNNY   73  39  29 N12       30.01S
BUFFALO WY     SUNNY     68  40  35 N13G18    30.05S
CODY           SUNNY     70  31  23 NE16      30.05S
YELLOWSTONE LA   N/A     62  13  14 W10G18    30.20R
IDAHO FALLS    SUNNY     75  33  21 CALM      30.09F
SALMON         SUNNY     72  28  20 CALM      30.09F
BOISE            N/A     79  29  16 NW21G30   30.10R
SPOKANE          N/A     72  26  18 VRB6G22   30.20F
$$

REGIONAL REPORTS...ALBERTA

CITY           SKY/WX    TMP DP  RH WIND       PRES   REMARKS
EDMONTON       MOSUNNY   59  39  47 NW21G28   30.14R
CALGARY        PTSUNNY   61  34  36 N18G31    30.18S
LETHBRIDGE     CLOUDY    61  41  48 NW13G20   30.18S
MEDICINE HAT   CLOUDY    57  43  58 NW23G33   30.11R
WATERTON GATE    N/A     57  36  44 SE3         N/A
CARDSTON         N/A     59  36  41 N7          N/A
MILK RIVER       N/A     54  45  71 N18G26      N/A
$$

REGIONAL REPORTS...SASKATCHEWAN

CITY           SKY/WX    TMP DP  RH WIND       PRES   REMARKS
SWIFT CURRENT  CLOUDY    48  46  93 NW28G41   29.95R
REGINA         LGT RAIN  57  54  88 W24       29.75S
SASKATOON      CLOUDY    54  46  76 NW24G35   29.88R
CYPRESS HILLS    N/A     43  41  93 NW13G26     N/A
VAL MARIE        N/A     52  48  87 NW25G35     N/A
ROCKGLEN         N/A     52  46  82 W21G31      N/A
ASSINIBOIA       N/A     59  41  51 NW23G29     N/A
$$




USA.gov is the U.S. government's official web portal to all federal, state and local government web resources and services.